GW5817 Weather Reports


Display with metric or nautical units.
time (UTC)temp
F
wind
direction
speed
MPH
gust
MPH
rain 1hr
in
rain 24hr
in
rain mn
in
humidity
%
barometer
mb
20260509183146 70 351 2.0 5.0 0.00 0.00 0.00 45 1019.1
20260509182642 71 244 3.0 5.0 0.00 0.00 0.00 50 1019.1
20260509182139 71 7 3.0 4.0 0.00 0.00 0.00 46 1019.1
20260509181637 69 341 1.0 5.0 0.00 0.00 0.00 47 1018.9
20260509181135 69 330 3.0 7.0 0.00 0.00 0.00 47 1019.1
20260509180631 68 345 3.0 7.0 0.00 0.00 0.00 48 1019.5
20260509180127 69 341 5.0 6.0 0.00 0.00 0.00 48 1019.5
20260509175623 69 293 1.0 5.0 0.00 0.00 0.00 47 1019.3
20260509175120 70 29 2.0 4.0 0.00 0.00 0.00 48 1019.2
20260509174616 69 341 3.0 7.0 0.00 0.00 0.00 49 1019.1
20260509174111 70 261 1.0 5.0 0.00 0.00 0.00 48 1019.4
20260509173607 69 56 1.0 3.0 0.00 0.00 0.00 49 1019.2
20260509173103 68 349 2.0 5.0 0.00 0.00 0.00 48 1019.2
20260509172600 69 314 2.0 8.0 0.00 0.00 0.00 50 1019.4
20260509172056 68 344 2.0 7.0 0.00 0.00 0.00 49 1019.4
20260509171552 67 340 2.0 8.0 0.00 0.00 0.00 50 1019.4
20260509171048 68 336 3.0 7.0 0.00 0.00 0.00 49 1019.4
20260509170544 68 341 2.0 3.0 0.00 0.00 0.00 51 1019.5
20260509170041 68 315 2.0 5.0 0.00 0.00 0.00 53 1019.8
20260509165539 67 356 3.0 6.0 0.00 0.00 0.00 51 1019.6
20260509165035 66 319 0.0 5.0 0.00 0.00 0.00 50 1019.6
20260509164531 66 9 4.0 7.0 0.00 0.00 0.00 52 1019.9
20260509164027 67 358 2.0 5.0 0.00 0.00 0.00 50 1019.6
20260509163525 67 346 2.0 3.0 0.00 0.00 0.00 51 1019.7
20260509163020 67 350 2.0 5.0 0.00 0.00 0.00 49 1019.8
20260509162518 67 326 2.0 4.0 0.00 0.00 0.00 51 1019.9
20260509162013 66 4 2.0 6.0 0.00 0.00 0.00 50 1019.8
20260509161510 65 4 3.0 7.0 0.00 0.00 0.00 55 1019.9
20260509161010 66 0 3.0 3.0 0.00 0.00 0.00 54 1019.9
20260509160506 66 309 3.0 6.0 0.00 0.00 0.00 58 1019.8
20260509160001 66 294 2.0 3.0 0.00 0.00 0.00 56 1019.8
20260509155458 66 352 2.0 4.0 0.00 0.00 0.00 53 1019.8
20260509154955 67 339 0.0 4.0 0.00 0.00 0.00 49 1019.7
20260509154451 66 191 0.0 4.0 0.00 0.00 0.00 49 1019.8
20260509153948 66 207 1.0 3.0 0.00 0.00 0.00 49 1019.7
20260509153445 66 248 0.0 8.0 0.00 0.00 0.00 52 1019.7
20260509152942 65 169 1.0 5.0 0.00 0.00 0.00 52 1019.7
20260509152438 65 180 1.0 3.0 0.00 0.00 0.00 52 1019.8
20260509151935 64 253 2.0 5.0 0.00 0.00 0.00 51 1019.8
20260509151431 64 228 0.0 4.0 0.00 0.00 0.00 52 1019.8
20260509150930 64 319 0.0 5.0 0.00 0.00 0.00 55 1019.5
20260509150426 64 176 0.0 7.0 0.00 0.00 0.00 54 1019.7
20260509145925 64 316 0.0 3.0 0.00 0.00 0.00 53 1019.6
20260509145425 63 290 5.0 6.0 0.00 0.00 0.00 56 1019.6
20260509144921 62 120 3.0 7.0 0.00 0.00 0.00 55 1019.6
20260509144418 62 129 5.0 6.0 0.00 0.00 0.00 55 1019.6
20260509143915 61 130 4.0 8.0 0.00 0.00 0.00 57 1019.4
20260509143412 61 142 0.0 10.0 0.00 0.00 0.00 59 1019.4
20260509142908 62 195 0.0 3.0 0.00 0.00 0.00 56 1019.3
20260509142405 62 112 2.0 6.0 0.00 0.00 0.00 56 1019.3
20260509141900 61 152 4.0 7.0 0.00 0.00 0.00 59 1019.5
20260509141358 61 118 4.0 5.0 0.00 0.00 0.00 57 1019.4
20260509140854 60 141 3.0 3.0 0.00 0.00 0.00 61 1019.5
20260509140351 59 159 4.0 5.0 0.00 0.00 0.00 61 1019.6
20260509135849 58 132 1.0 2.0 0.00 0.00 0.00 65 1019.5
20260509135346 56 157 2.0 5.0 0.00 0.00 0.00 66 1019.5
20260509134844 55 130 3.0 5.0 0.00 0.00 0.00 69 1019.4
20260509134341 55 120 3.0 5.0 0.00 0.00 0.00 70 1019.5
20260509133837 55 116 5.0 6.0 0.00 0.00 0.00 69 1019.5
20260509133334 54 113 3.0 5.0 0.00 0.00 0.00 70 1019.7
20260509132833 53 123 4.0 5.0 0.00 0.00 0.00 70 1019.6
20260509132331 52 126 5.0 8.0 0.00 0.00 0.00 73 1019.5
20260509131827 52 126 5.0 7.0 0.00 0.00 0.00 73 1019.3
20260509131324 52 118 3.0 8.0 0.00 0.00 0.00 72 1019.4
20260509130821 52 117 2.0 4.0 0.00 0.00 0.00 72 1019.6
20260509130316 52 121 6.0 6.0 0.00 0.00 0.00 72 1019.6
20260509125813 52 130 7.0 7.0 0.00 0.00 0.00 71 1019.4
20260509125310 52 148 3.0 6.0 0.00 0.00 0.00 71 1019.3
20260509124806 53 137 2.0 3.0 0.00 0.00 0.00 71 1019.4
20260509124303 53 147 0.0 3.0 0.00 0.00 0.00 70 1019.5
20260509123801 54 128 1.0 3.0 0.00 0.00 0.00 67 1019.5
20260509123258 54 180 0.0 5.0 0.00 0.00 0.00 68 1019.5
20260509122754 52 71 1.0 4.0 0.00 0.00 0.00 71 1019.3
20260509122251 52 154 2.0 7.0 0.00 0.00 0.00 71 1019.3
20260509121748 52 150 3.0 6.0 0.00 0.00 0.00 72 1019.4
20260509121245 52 95 3.0 5.0 0.00 0.00 0.00 71 1019.4
20260509120743 53 37 0.0 2.0 0.00 0.00 0.00 70 1019.2
20260509120240 53 18 0.0 4.0 0.00 0.00 0.00 69 1019.0
20260509115738 52 155 2.0 4.0 0.00 0.00 0.00 72 1019.3
20260509115235 51 307 0.0 3.0 0.00 0.00 0.00 72 1019.4
20260509114733 52 124 1.0 3.0 0.00 0.00 0.00 71 1019.3
20260509114232 52 60 2.0 4.0 0.00 0.00 0.00 71 1019.0
20260509113730 52 121 2.0 3.0 0.00 0.00 0.00 72 1019.2
20260509113227 53 188 2.0 4.0 0.00 0.00 0.00 70 1019.1
20260509112724 53 264 2.0 3.0 0.00 0.00 0.00 69 1019.3
20260509112221 54 77 2.0 3.0 0.00 0.00 0.00 68 1019.0
20260509111718 54 319 2.0 3.0 0.00 0.00 0.00 68 1019.3
20260509111215 54 178 1.0 7.0 0.00 0.00 0.00 68 1019.1
20260509110712 54 244 1.0 5.0 0.00 0.00 0.00 68 1019.2
20260509110209 55 276 3.0 7.0 0.00 0.00 0.00 67 1019.0
20260509105707 55 146 3.0 5.0 0.00 0.00 0.00 67 1019.0
20260509105204 55 166 3.0 7.0 0.00 0.00 0.00 67 1019.0
20260509104701 55 153 3.0 7.0 0.00 0.00 0.00 66 1019.0
20260509104158 55 109 5.0 10.0 0.00 0.00 0.00 67 1019.1
20260509103656 55 181 2.0 9.0 0.00 0.00 0.00 67 1019.3
20260509103153 54 151 3.0 5.0 0.00 0.00 0.00 68 1019.0
20260509102651 54 169 2.0 5.0 0.00 0.00 0.00 68 1019.2
20260509102148 55 137 3.0 3.0 0.00 0.00 0.00 67 1019.0
20260509101644 55 240 0.0 5.0 0.00 0.00 0.00 66 1018.9
20260509101141 55 0 3.0 6.0 0.00 0.00 0.00 67 1019.0
20260509100638 54 197 1.0 5.0 0.00 0.00 0.00 68 1018.9
20260509100135 55 199 0.0 3.0 0.00 0.00 0.00 67 1018.9
20260509095632 55 156 0.0 4.0 0.00 0.00 0.00 67 1018.7
20260509095129 55 211 2.0 4.0 0.00 0.00 0.00 67 1018.6
20260509094625 55 152 0.0 3.0 0.00 0.00 0.00 66 1018.7
20260509094123 55 274 2.0 4.0 0.00 0.00 0.00 65 1018.6
20260509093621 55 270 1.0 6.0 0.00 0.00 0.00 67 1018.8
20260509093118 54 203 1.0 7.0 0.00 0.00 0.00 68 1018.8
20260509092615 55 172 0.0 2.0 0.00 0.00 0.00 67 1018.7
20260509092114 55 207 1.0 2.0 0.00 0.00 0.00 66 1018.7
20260509091612 55 202 4.0 6.0 0.00 0.00 0.00 65 1018.5
20260509091107 56 238 2.0 4.0 0.00 0.00 0.00 64 1018.7
20260509090605 55 145 3.0 4.0 0.00 0.00 0.00 66 1018.5
20260509085600 55 185 1.0 4.0 0.00 0.00 0.00 66 1018.5
20260509085055 56 349 2.0 3.0 0.00 0.00 0.00 65 1018.3
20260509084553 55 334 3.0 5.0 0.00 0.00 0.00 66 1018.3
20260509084050 56 29 0.0 2.0 0.00 0.00 0.00 65 1018.2
20260509083548 56 234 0.0 4.0 0.00 0.00 0.00 63 1018.2
20260509083044 56 121 0.0 8.0 0.00 0.00 0.00 63 1017.9
20260509082541 56 347 2.0 5.0 0.00 0.00 0.00 63 1018.3
20260509082038 57 104 3.0 4.0 0.00 0.00 0.00 63 1018.2
20260509081535 56 224 2.0 11.0 0.00 0.00 0.00 63 1017.9
20260509081032 56 133 1.0 5.0 0.00 0.00 0.00 63 1018.3
20260509080530 54 338 7.0 9.0 0.00 0.00 0.00 66 1018.1
20260509080028 54 29 2.0 7.0 0.00 0.00 0.00 68 1018.3
20260509075525 55 15 3.0 4.0 0.00 0.00 0.00 65 1018.2
20260509075023 56 298 0.0 3.0 0.00 0.00 0.00 64 1018.2
20260509074520 56 97 1.0 4.0 0.00 0.00 0.00 63 1017.9
20260509074016 56 63 0.0 3.0 0.00 0.00 0.00 63 1017.7
20260509073513 56 122 2.0 4.0 0.00 0.00 0.00 63 1017.5
20260509073009 56 169 0.0 3.0 0.00 0.00 0.00 62 1017.6
20260509072506 57 103 1.0 5.0 0.00 0.00 0.00 60 1017.6
20260509072003 57 170 2.0 6.0 0.00 0.00 0.00 60 1017.5
20260509071459 57 81 2.0 4.0 0.00 0.00 0.00 60 1017.5
20260509070957 56 180 0.0 4.0 0.00 0.00 0.00 62 1017.5
20260509070454 56 57 1.0 3.0 0.00 0.00 0.00 61 1017.3
20260509065949 57 110 0.0 2.0 0.00 0.00 0.00 60 1017.5
20260509065446 57 336 0.0 4.0 0.00 0.00 0.00 60 1017.3
20260509064942 57 157 0.0 6.0 0.00 0.00 0.00 58 1017.5
20260509064440 58 136 0.0 3.0 0.00 0.00 0.00 57 1017.4
20260509063938 58 208 4.0 6.0 0.00 0.00 0.00 57 1017.3
20260509063438 58 191 0.0 5.0 0.00 0.00 0.00 57 1017.2
20260509062936 58 179 3.0 5.0 0.00 0.00 0.00 57 1017.3
20260509062433 58 144 2.0 7.0 0.00 0.00 0.00 56 1017.3
20260509061931 59 135 2.0 6.0 0.00 0.00 0.00 55 1017.3
20260509061428 59 177 2.0 5.0 0.00 0.00 0.00 54 1017.1
20260509060925 59 127 1.0 5.0 0.00 0.00 0.00 55 1017.1
20260509060422 59 305 0.0 6.0 0.00 0.00 0.00 55 1017.2
20260509055917 59 208 0.0 5.0 0.00 0.00 0.00 55 1016.9
20260509055412 60 144 0.0 7.0 0.00 0.00 0.00 53 1017.2
20260509054910 60 182 3.0 7.0 0.00 0.00 0.00 53 1017.0
20260509054407 60 205 2.0 7.0 0.00 0.00 0.00 52 1016.9
20260509053905 60 196 4.0 7.0 0.00 0.00 0.00 53 1016.9
20260509053402 60 214 2.0 5.0 0.00 0.00 0.00 52 1016.8
20260509052900 60 180 4.0 6.0 0.00 0.00 0.00 52 1017.0
20260509052357 60 271 4.0 7.0 0.00 0.00 0.00 51 1016.6
20260509051855 61 203 3.0 7.0 0.00 0.00 0.00 51 1016.6
20260509051353 61 221 4.0 6.0 0.00 0.00 0.00 50 1016.4
20260509050849 61 251 2.0 7.0 0.00 0.00 0.00 49 1016.3
20260509050346 61 180 2.0 6.0 0.00 0.00 0.00 49 1016.5
20260509045843 61 184 2.0 5.0 0.00 0.00 0.00 49 1016.3
20260509045340 62 135 0.0 3.0 0.00 0.00 0.00 49 1016.0
20260509044837 62 214 3.0 5.0 0.00 0.00 0.00 47 1016.0
20260509044335 63 220 4.0 7.0 0.00 0.00 0.00 46 1015.8
20260509043831 63 247 5.0 9.0 0.00 0.00 0.00 45 1015.9
20260509043327 63 217 0.0 7.0 0.00 0.00 0.00 45 1015.8
20260509042823 63 202 2.0 7.0 0.00 0.00 0.00 45 1015.8
20260509042319 63 226 7.0 8.0 0.00 0.00 0.00 43 1015.6
20260509041816 63 232 2.0 8.0 0.00 0.00 0.00 43 1015.6
20260509041313 64 243 4.0 9.0 0.00 0.00 0.00 43 1015.5
20260509040812 64 242 2.0 6.0 0.00 0.00 0.00 42 1015.3
20260509040308 64 241 4.0 9.0 0.00 0.00 0.00 42 1015.2
20260509035806 64 220 2.0 5.0 0.00 0.00 0.00 43 1015.5
20260509035306 63 218 2.0 5.0 0.00 0.00 0.00 44 1015.1
20260509034759 63 221 2.0 4.0 0.00 0.00 0.00 44 1015.1
20260509034257 63 250 3.0 5.0 0.00 0.00 0.00 42 1015.1
20260509033753 63 58 0.0 4.0 0.00 0.00 0.00 44 1014.7
20260509033251 64 293 1.0 4.0 0.00 0.00 0.00 43 1014.9
20260509032747 64 346 2.0 4.0 0.00 0.00 0.00 41 1015.0
20260509032244 65 239 1.0 6.0 0.00 0.00 0.00 39 1014.3
20260509031742 66 239 3.0 6.0 0.00 0.00 0.00 37 1014.3
20260509031239 66 202 3.0 8.0 0.00 0.00 0.00 37 1014.1
20260509030737 67 227 5.0 8.0 0.00 0.00 0.00 36 1013.8
20260509030235 67 201 3.0 7.0 0.00 0.00 0.00 36 1014.0
20260509025731 68 232 7.0 10.0 0.00 0.00 0.00 34 1013.6
20260509025227 68 242 4.0 10.0 0.00 0.00 0.00 33 1013.5
20260509024722 68 229 2.0 8.0 0.00 0.00 0.00 34 1013.6
20260509024218 69 241 3.0 10.0 0.00 0.00 0.00 33 1013.6
20260509023716 69 221 2.0 10.0 0.00 0.00 0.00 33 1013.5
20260509023213 69 235 3.0 9.0 0.00 0.00 0.00 33 1013.4
20260509022709 70 246 4.0 15.0 0.00 0.00 0.00 32 1013.5
20260509022207 70 228 3.0 10.0 0.00 0.00 0.00 31 1013.5
20260509021704 70 232 7.0 9.0 0.00 0.00 0.00 30 1013.3
20260509021201 71 233 3.0 8.0 0.00 0.00 0.00 30 1013.2
20260509020659 71 244 3.0 9.0 0.00 0.00 0.00 30 1013.3
20260509020156 72 230 6.0 9.0 0.00 0.00 0.00 28 1013.1
20260509015654 72 231 2.0 8.0 0.00 0.00 0.00 29 1013.1
20260509015152 73 262 2.0 11.0 0.00 0.00 0.00 28 1013.1
20260509014648 73 244 3.0 9.0 0.00 0.00 0.00 27 1013.1
20260509014144 73 233 5.0 9.0 0.00 0.00 0.00 26 1013.3
20260509013641 73 233 5.0 10.0 0.00 0.00 0.00 26 1013.3
20260509013137 73 229 3.0 12.0 0.00 0.00 0.00 27 1013.1
20260509012634 74 230 5.0 11.0 0.00 0.00 0.00 26 1013.3
20260509012131 74 245 9.0 10.0 0.00 0.00 0.00 25 1013.1
20260509011629 74 243 8.0 9.0 0.00 0.00 0.00 25 1013.2
20260509011126 75 252 7.0 12.0 0.00 0.00 0.00 25 1013.2
20260509010623 75 232 7.0 10.0 0.00 0.00 0.00 24 1013.2
20260509010120 75 247 3.0 11.0 0.00 0.00 0.00 25 1013.4
20260509005618 75 240 3.0 11.0 0.00 0.00 0.00 23 1013.3
20260509005113 75 250 3.0 9.0 0.00 0.00 0.00 24 1013.4
20260509004610 75 228 4.0 9.0 0.00 0.00 0.00 22 1013.4
20260509004107 75 231 4.0 11.0 0.00 0.00 0.00 21 1013.2
20260509003605 75 245 6.0 14.0 0.00 0.00 0.00 22 1013.2
20260509003102 75 226 4.0 13.0 0.00 0.00 0.00 23 1013.3
20260509002600 75 230 7.0 13.0 0.00 0.00 0.00 23 1013.3
20260509002057 75 233 10.0 10.0 0.00 0.00 0.00 22 1013.4
20260509001554 75 232 4.0 14.0 0.00 0.00 0.00 21 1013.2
20260509001050 76 249 3.0 12.0 0.00 0.00 0.00 20 1013.0
20260509000549 76 222 5.0 10.0 0.00 0.00 0.00 21 1013.3
20260509000044 76 248 5.0 9.0 0.00 0.00 0.00 21 1013.3
20260508235542 76 240 7.0 14.0 0.00 0.00 0.00 20 1013.2
20260508235038 76 246 6.0 15.0 0.00 0.00 0.00 20 1013.0
20260508234536 75 234 10.0 16.0 0.00 0.00 0.00 20 1013.1
20260508234032 76 219 7.0 16.0 0.00 0.00 0.00 20 1013.2
20260508233532 75 223 6.0 13.0 0.00 0.00 0.00 20 1013.5
20260508233029 76 224 10.0 13.0 0.00 0.00 0.00 20 1013.5
20260508232525 77 230 3.0 9.0 0.00 0.00 0.00 21 1013.7
20260508232022 76 240 4.0 12.0 0.00 0.00 0.00 16 1013.6
20260508231520 75 254 4.0 7.0 0.00 0.00 0.00 19 1013.4
20260508231017 75 233 6.0 13.0 0.00 0.00 0.00 17 1013.4
20260508230514 77 234 4.0 12.0 0.00 0.00 0.00 16 1013.5
20260508230010 77 254 3.0 11.0 0.00 0.00 0.00 20 1013.5
20260508225508 76 254 5.0 13.0 0.00 0.00 0.00 18 1013.3
20260508225004 76 245 11.0 13.0 0.00 0.00 0.00 14 1013.4
20260508224502 76 249 2.0 11.0 0.00 0.00 0.00 15 1013.5
20260508223959 75 229 3.0 7.0 0.00 0.00 0.00 16 1013.6
20260508223457 77 250 2.0 12.0 0.00 0.00 0.00 16 1013.4
20260508222954 77 231 3.0 11.0 0.00 0.00 0.00 17 1013.5
20260508222451 76 240 2.0 10.0 0.00 0.00 0.00 18 1013.5
20260508221947 76 252 3.0 13.0 0.00 0.00 0.00 16 1013.5
20260508221443 77 228 8.0 10.0 0.00 0.00 0.00 19 1013.7
20260508220940 77 241 9.0 12.0 0.00 0.00 0.00 18 1013.6
20260508220437 78 243 5.0 11.0 0.00 0.00 0.00 21 1013.5
20260508215933 77 239 9.0 14.0 0.00 0.00 0.00 15 1013.6
20260508215430 77 209 5.0 11.0 0.00 0.00 0.00 19 1013.5
20260508214926 77 223 5.0 13.0 0.00 0.00 0.00 21 1013.6
20260508214425 76 216 4.0 9.0 0.00 0.00 0.00 25 1013.5
20260508213920 75 238 5.0 12.0 0.00 0.00 0.00 24 1013.6
20260508213418 76 248 5.0 9.0 0.00 0.00 0.00 27 1013.8
20260508212913 75 232 5.0 10.0 0.00 0.00 0.00 25 1013.6
20260508212410 75 238 3.0 7.0 0.00 0.00 0.00 25 1013.7
20260508211906 75 259 3.0 12.0 0.00 0.00 0.00 27 1014.0
20260508211401 75 252 3.0 7.0 0.00 0.00 0.00 28 1014.0
20260508210859 74 216 1.0 5.0 0.00 0.00 0.00 31 1014.1
20260508210355 75 259 2.0 8.0 0.00 0.00 0.00 31 1014.4
20260508205852 73 247 3.0 7.0 0.00 0.00 0.00 35 1014.3
20260508205349 74 244 2.0 11.0 0.00 0.00 0.00 35 1014.0
20260508204845 73 241 4.0 9.0 0.00 0.00 0.00 34 1013.7
20260508204342 74 262 2.0 6.0 0.00 0.00 0.00 37 1013.7
20260508203838 75 276 4.0 5.0 0.00 0.00 0.00 35 1013.7
20260508203334 74 232 6.0 11.0 0.00 0.00 0.00 30 1013.7
20260508202830 74 223 6.0 12.0 0.00 0.00 0.00 29 1013.6
20260508202328 75 247 5.0 10.0 0.00 0.00 0.00 28 1013.7
20260508201825 77 255 1.0 7.0 0.00 0.00 0.00 30 1013.5
20260508201322 76 197 5.0 9.0 0.00 0.00 0.00 30 1013.6
20260508200818 77 267 3.0 8.0 0.00 0.00 0.00 31 1013.7
20260508200315 76 211 7.0 8.0 0.00 0.00 0.00 31 1013.5
20260508195811 77 225 3.0 6.0 0.00 0.00 0.00 34 1013.8
20260508195307 76 261 2.0 6.0 0.00 0.00 0.00 35 1013.7
20260508194804 74 227 3.0 8.0 0.00 0.00 0.00 32 1014.0
20260508194301 74 229 4.0 8.0 0.00 0.00 0.00 29 1013.8
20260508193758 73 217 4.0 6.0 0.00 0.00 0.00 31 1014.0
20260508193255 73 221 3.0 9.0 0.00 0.00 0.00 31 1013.5
20260508192751 73 226 1.0 11.0 0.00 0.00 0.00 30 1014.2
20260508192248 74 235 9.0 15.0 0.00 0.00 0.00 26 1014.0
20260508191745 74 152 1.0 9.0 0.00 0.00 0.00 31 1014.2
20260508191242 74 223 4.0 7.0 0.00 0.00 0.00 32 1014.1
20260508190740 73 213 4.0 10.0 0.00 0.00 0.00 30 1014.1
20260508190235 73 272 3.0 9.0 0.00 0.00 0.00 34 1014.3
20260508185732 72 280 2.0 8.0 0.00 0.00 0.00 34 1014.4
20260508185230 70 232 3.0 6.0 0.00 0.00 0.00 36 1014.5
20260508184727 70 226 3.0 7.0 0.00 0.00 0.00 35 1014.4
20260508184224 69 240 2.0 5.0 0.00 0.00 0.00 35 1014.4
20260508183721 69 244 1.0 3.0 0.00 0.00 0.00 36 1014.7
20260508183217 69 204 1.0 3.0 0.00 0.00 0.00 36 1014.9